Location: Anumalkud?ru
(16.4847°N, 80.6636°E)
Time: 09:47:52
(UTC+00:00)

Meteor 1-24 Rocket - Pass Details

Date: 11 April 2026
Orbit: 790 x 925 km, 81.2° (Epoch: 11 May)

Event Time Altitude Azimuth Distance (km) Brightness Sun altitude
Rises 14:08:34 0° 3° (N) 3,370 7.0 -18.8°
Reaches altitude 10° 14:11:02 10° 9° (N) 2,456 6.2 -19.3°
Maximum altitude 14:16:24 48° 83° (E) 1,118 3.9 -20.6°
Enters shadow 14:17:51 39° 124° (ESE) 1,274 4.1 -20.9°
